Location: Bazinghen
(50.8246°N, 1.6616°E)
Time: 10:51:30
(UTC+00:00)

Cosmos 1850 Rocket - Pass Details

Date: 09 April 2020
Orbit: 754 x 786 km, 74.0° (Epoch: 25 May)

Event Time Altitude Azimuth Distance (km) Brightness Sun altitude
Exits shadow 20:24:22 17° 166° (SSE) 1,863 5.6 -15.8°
Maximum altitude 20:27:58 40° 104° (ESE) 1,108 4.4 -16.3°
Drops below altitude 10° 20:32:47 10° 36° (NE) 2,291 6.5 -16.9°
Sets 20:35:16 0° 30° (NNE) 3,222 7.3 -17.2°
